DAMPETORP Weather Reports


Display with metric or nautical units.
time (UTC)temp
F
wind
direction
speed
MPH
gust
MPH
rain 1hr
in
rain 24hr
in
rain mn
in
humidity
%
barometer
mb
20260505223027 29 49 0.0 0.0 0.00 0.00 0.00 82 1010.1
20260505221520 29 49 0.0 0.0 0.00 0.00 0.00 79 1010.1
20260505220016 30 49 0.0 0.0 0.00 0.00 0.00 78 1009.9
20260505214515 31 49 0.0 1.0 0.00 0.00 0.00 76 1009.8
20260505213012 31 49 0.0 0.0 0.00 0.00 0.00 74 1009.8
20260505211509 32 49 0.0 0.0 0.00 0.00 0.00 72 1009.6
20260505210006 33 49 0.0 1.0 0.00 0.00 0.00 69 1009.5
20260505204503 34 49 0.0 1.0 0.00 0.00 0.00 69 1009.4
20260505203002 34 49 0.0 0.0 0.00 0.00 0.00 67 1009.1
20260505201600 34 49 0.0 1.0 0.00 0.00 0.00 66 1009.0
20260505200059 35 48 0.0 0.0 0.00 0.00 0.00 64 1009.0
20260505194604 37 48 0.0 2.0 0.00 0.00 0.00 60 1008.9
20260505193047 38 84 0.0 1.0 0.00 0.00 0.00 59 1008.8
20260505191544 40 101 0.0 1.0 0.00 0.00 0.00 52 1008.7
20260505190045 41 133 0.0 1.0 0.00 0.00 0.00 49 1008.6
20260505184540 44 133 0.0 1.0 0.00 0.00 0.00 42 1008.5
20260505183038 46 133 0.0 1.0 0.00 0.00 0.00 37 1008.3
20260505181537 47 133 0.0 2.0 0.00 0.00 0.00 35 1008.1
20260505180136 47 78 1.0 4.0 0.00 0.00 0.00 34 1008.0
20260505174534 48 124 3.0 6.0 0.00 0.00 0.00 32 1007.9
20260505173042 48 118 2.0 9.0 0.00 0.00 0.00 32 1007.9
20260505171534 48 142 2.0 9.0 0.00 0.00 0.00 31 1007.8
20260505170037 49 166 1.0 8.0 0.00 0.00 0.00 32 1007.7
20260505164547 49 14 3.0 10.0 0.00 0.00 0.00 31 1007.7
20260505163031 50 82 2.0 12.0 0.00 0.00 0.00 30 1007.7
20260505161529 50 25 5.0 13.0 0.00 0.00 0.00 30 1007.7
20260505153035 50 153 6.0 10.0 0.00 0.00 0.00 30 1007.6
20260505151525 50 148 3.0 14.0 0.00 0.00 0.00 31 1007.6
20260505124514 49 129 3.0 13.0 0.00 0.00 0.00 34 1007.5
20260505123012 48 75 6.0 11.0 0.00 0.00 0.00 34 1007.5
20260505121511 49 338 5.0 14.0 0.00 0.00 0.00 35 1007.6
20260505120010 48 9 2.0 11.0 0.00 0.00 0.00 39 1007.4
20260505114510 49 44 2.0 11.0 0.00 0.00 0.00 37 1007.2
20260505113007 48 131 2.0 10.0 0.00 0.00 0.00 37 1007.2
20260505111507 49 34 2.0 11.0 0.00 0.00 0.00 38 1007.1
20260505101604 48 130 5.0 12.0 0.00 0.00 0.00 38 1006.9
20260505100059 48 100 3.0 13.0 0.00 0.00 0.00 40 1006.6
20260505094606 48 143 6.0 10.0 0.00 0.00 0.00 41 1006.6
20260505093055 48 105 5.0 10.0 0.00 0.00 0.00 41 1006.6
20260505091558 47 65 6.0 15.0 0.00 0.00 0.00 41 1006.6
20260505090056 47 96 3.0 13.0 0.00 0.00 0.00 46 1006.5
20260505084549 47 86 4.0 18.0 0.00 0.00 0.00 46 1006.4
20260505083048 47 121 3.0 11.0 0.00 0.00 0.00 46 1006.4
20260505081556 46 108 6.0 13.0 0.00 0.00 0.00 49 1006.2
20260505080046 46 53 3.0 10.0 0.00 0.00 0.00 50 1006.2
20260505074554 46 150 2.0 10.0 0.00 0.00 0.00 53 1006.0
20260505073036 46 97 2.0 10.0 0.00 0.00 0.00 54 1006.0
20260505071633 46 62 4.0 12.0 0.00 0.00 0.00 55 1005.9
20260505070032 44 53 3.0 12.0 0.00 0.00 0.00 57 1005.7
20260505064533 44 165 4.0 10.0 0.00 0.00 0.00 58 1005.7
20260505063035 44 138 2.0 12.0 0.00 0.00 0.00 61 1005.6
20260505061532 43 145 2.0 8.0 0.00 0.00 0.00 64 1005.5
20260505060027 43 34 2.0 8.0 0.00 0.00 0.00 65 1005.4
20260505054528 43 115 4.0 10.0 0.00 0.00 0.00 65 1005.3
20260505053022 43 121 2.0 9.0 0.00 0.00 0.00 67 1005.2
20260505051520 42 143 2.0 8.0 0.00 0.00 0.00 67 1005.1
20260505041514 41 53 1.0 4.0 0.00 0.02 0.00 70 1004.7
20260505040012 41 61 1.0 5.0 0.00 0.03 0.00 70 1004.5
20260505034514 40 143 1.0 5.0 0.00 0.03 0.00 70 1004.4
20260505033018 40 147 0.0 5.0 0.00 0.03 0.00 72 1004.3
20260505031507 40 139 1.0 4.0 0.00 0.03 0.00 72 1004.2
20260505030005 40 133 1.0 4.0 0.00 0.07 0.00 73 1004.2
20260505024506 40 105 0.0 2.0 0.00 0.07 0.00 72 1004.1
20260505023058 41 89 0.0 5.0 0.00 0.07 0.00 72 1004.0
20260505021611 42 137 0.0 3.0 0.00 0.07 0.00 75 1003.8
20260505020052 42 99 0.0 5.0 0.00 0.08 0.00 78 1003.6
20260505014550 43 27 1.0 4.0 0.00 0.08 0.00 82 1003.5
20260505013046 43 147 1.0 4.0 0.00 0.08 0.00 87 1003.4
20260505011551 44 46 1.0 4.0 0.00 0.08 0.00 88 1003.3
20260505010044 44 34 1.0 7.0 0.00 0.08 0.00 88 1003.3
20260505004544 44 109 3.0 9.0 0.00 0.08 0.00 87 1003.2
20260505003038 44 19 0.0 8.0 0.00 0.08 0.00 86 1003.1
20260505001536 45 46 1.0 8.0 0.00 0.08 0.00 85 1002.9
20260505000033 45 70 4.0 13.0 0.00 0.08 0.00 84 1002.9
20260504234531 45 344 1.0 12.0 0.00 0.08 0.00 84 1002.9
20260504233029 45 46 3.0 12.0 0.00 0.08 0.00 83 1002.9
20260504231526 46 46 5.0 13.0 0.00 0.08 0.00 82 1002.9
20260504230027 46 35 1.0 9.0 0.00 0.08 0.00 80 1002.9
20260504224523 46 40 3.0 12.0 0.00 0.08 0.00 79 1002.8